Temperature
15 16 16 16 13 11 12 13 13 13 13 13 14 14 13 13 13 14 14 14 14 14 13 13 13 13 13 13 13 13 13 13 13 13 13 13 13 13 13 13 14 14 14 14 14 14 14 14 14
15 15 15 15 12 12 13 12 13 13 14 13 13 13 13 13 13 14 14 14 14 13 13 13 12 12 12 12 12 12 12 12 13 13 12 12 13 13 13 13 13 13 13 14 14 14 14 14 14
15 15 15 11 11 12 14 13 12 13 13 13 12 13 13 13 13 13 14 13 13 13 13 13 12 12 12 12 12 12 12 12 12 12 12 12 12 12 13 13 13 13 13 13 13 13 13 14 14
15 15 14 11 12 12 13 13 12 12 13 13 12 12 12 12 13 13 13 13 13 13 12 12 12 12 12 11 11 11 11 12 12 12 12 12 12 12 12 12 13 13 13 13 13 13 13 13 13
14 14 11 11 11 11 11 12 13 12 12 12 12 11 11 12 12 13 13 13 12 12 12 12 11 11 11 11 11 11 11 11 11 11 12 12 12 12 12 12 12 12 12 12 12 13 13 13 13
14 11 10 11 12 11 11 13 13 12 11 11 11 11 11 12 12 12 12 12 12 12 11 11 11 11 11 11 11 11 11 11 11 11 11 11 12 12 12 12 12 12 12 12 12 12 12 13 13
12 9 10 11 11 12 12 12 12 11 10 11 12 11 11 12 12 12 11 11 11 11 11 11 10 11 11 11 11 10 11 11 11 11 11 11 12 12 12 12 12 12 12 12 12 12 12 12 12
13 9 10 10 11 12 12 12 12 12 11 12 12 11 11 12 11 11 11 11 11 11 10 10 10 10 10 10 10 10 10 11 11 11 11 11 11 11 11 11 11 11 11 12 12 12 12 12 12
13 9 10 10 11 12 11 11 11 12 12 11 11 11 11 12 11 10 10 10 10 10 10 10 10 10 10 10 10 10 10 10 10 10 10 10 10 11 11 11 11 11 11 11 11 11 11 11 11
11 9 11 11 11 11 11 11 11 10 9 9 10 11 11 11 11 10 10 10 10 10 10 10 9 10 10 10 10 10 10 10 10 10 10 10 10 10 10 10 10 10 10 10 11 11 11 11 11
10 9 10 11 11 11 10 10 11 10 8 9 10 11 11 10 10 10 10 10 10 10 9 9 9 9 9 9 9 9 9 9 9 9 9 9 9 9 10 10 10 10 10 10 10 10 10 10 10
9 9 10 10 11 11 10 10 9 8 10 11 11 11 11 10 10 10 9 9 9 9 9 9 9 9 9 9 9 9 9 9 9 9 9 9 9 9 9 9 9 9 9 9 9 9 9 9 9
9 9 10 10 10 10 9 8 8 8 10 10 10 10 10 10 9 9 9 9 9 9 9 9 8 8 8 8 8 8 8 8 8 8 8 8 8 8 8 8 8 8 8 8 9 9 9 9 9
9 9 9 9 9 9 8 8 7 8 9 9 9 9 9 9 9 8 8 8 8 8 8 8 8 8 8 8 8 8 8 8 8 8 7 7 7 7 7 8 8 8 7 8 8 8 8 8 8
9 8 8 8 8 8 8 7 6 8 8 8 8 8 8 8 8 8 8 8 8 8 8 8 8 8 8 8 8 7 7 7 7 7 7 7 7 7 7 7 7 7 7 7 7 7 7 7 7
8 8 8 8 7 7 8 7 7 8 7 7 7 7 7 7 7 7 7 7 7 7 7 7 7 7 7 7 7 7 7 7 7 6 6 6 6 6 6 6 6 6 6 6 6 6 6 6 7
7 7 7 7 7 6 7 6 6 7 6 5 5 6 6 6 6 6 7 7 7 7 7 7 7 7 7 6 6 6 6 6 6 6 6 6 6 5 5 5 5 6 6 6 6 5 5 6 6
7 7 7 7 6 6 5 5 5 5 5 5 4 4 5 5 5 6 6 6 6 6 6 6 6 6 6 6 6 6 6 5 5 5 5 5 5 5 5 5 5 5 5 5 5 5 5 5 5
7 6 6 6 6 5 5 4 5 4 4 3 3 3 4 4 5 4 5 5 5 5 6 5 5 5 5 5 5 5 5 5 5 5 5 5 5 5 5 4 4 4 4 4 4 4 4 4 4
6 6 6 5 5 5 4 4 4 3 3 3 3 3 3 3 3 4 4 4 5 5 5 5 5 5 5 5 5 5 4 4 4 4 4 4 4 4 4 4 4 4 4 4 3 3 3 3 3
6 5 5 5 4 4 4 4 4 3 3 3 3 3 3 3 3 3 3 4 4 4 4 4 4 4 4 4 4 4 4 4 3 4 4 4 4 4 4 4 3 3 3 3 3 3 3 3 2
5 5 5 5 4 4 4 4 4 3 2 2 2 1 2 2 2 2 3 3 3 3 4 4 4 4 4 3 3 3 3 3 3 3 3 3 3 3 3 3 3 3 3 3 2 2 2 2 2
5 5 5 4 4 3 3 3 3 2 2 1 1 1 1 1 1 2 2 3 3 3 3 3 3 3 3 3 3 3 3 3 3 3 3 3 3 3 2 2 2 2 2 2 2 2 2 1 1
4 4 4 3 3 4 3 3 3 1 1 1 -0 -0 0 0 1 1 2 2 3 3 2 2 2 2 2 2 2 2 2 2 2 2 2 2 2 2 2 2 2 2 2 2 1 1 1 1 1
4 3 3 3 3 3 3 3 2 0 -0 -1 -1 -1 -0 -0 -0 0 1 1 2 2 2 2 2 2 2 2 2 2 2 2 2 2 2 2 2 1 1 1 1 1 1 1 1 1 1 0 0
3 3 3 3 3 3 2 2 1 -0 -1 -1 -1 -1 -1 -1 -1 -1 -0 0 1 1 1 1 1 1 1 1 1 1 1 1 1 1 1 1 1 1 1 1 1 1 1 1 0 0 0 -0 -0
3 2 2 2 2 2 1 0 -0 -1 -1 -2 -2 -2 -2 -2 -2 -2 -1 -1 -0 0 0 0 0 1 1 1 1 1 1 1 1 1 0 0 0 0 0 0 0 0 0 0 0 0 -0 -0 -1
2 1 1 2 2 2 2 0 -0 -1 -2 -3 -3 -4 -4 -3 -3 -3 -2 -2 -2 -1 -1 -0 -0 -0 0 -0 -0 -0 0 0 0 0 0 0 -0 -0 -0 -0 -0 -0 -0 -0 -0 -0 -1 -1 -1
1 1 0 0 1 1 1 1 -1 -2 -3 -4 -4 -5 -5 -4 -4 -4 -3 -3 -2 -2 -2 -1 -1 -1 -1 -1 -1 -1 -0 -0 -1 -1 -0 -0 -1 -1 -1 -1 -1 -1 -1 -1 -1 -1 -1 -1 -1
0 -0 -1 0 -0 -1 -0 -1 -3 -4 -5 -5 -5 -5 -5 -5 -5 -4 -4 -4 -3 -3 -3 -2 -2 -2 -2 -2 -1 -1 -1 -1 -1 -1 -1 -1 -1 -1 -1 -1 -2 -2 -2 -1 -1 -1 -2 -2 -2
Wind_Speed
3 3 3 4 5 3 4 5 4 3 3 2 2 4 6 6 5 3 0 3 4 4 6 9 10 11 11 11 11 11 11 11 12 12 12 12 12 13 14 14 15 14 15 15 16 16 16 17 17
1 2 5 5 4 2 6 5 6 5 4 4 3 2 3 2 1 1 1 2 4 5 6 9 11 12 11 11 11 11 11 11 12 12 12 12 13 13 14 14 14 15 15 16 16 16 16 16 16
2 4 4 4 4 7 6 5 6 2 2 3 2 1 2 2 2 2 2 4 4 5 6 9 13 13 12 12 12 12 12 12 12 12 12 12 13 13 14 14 14 14 15 15 16 16 16 16 16
4 4 5 3 7 7 6 3 4 3 1 2 3 1 1 1 1 1 3 5 6 5 6 9 13 13 13 12 12 12 12 12 12 12 12 12 13 13 13 14 14 14 14 15 15 16 16 15 16
4 4 2 3 8 5 4 3 4 4 3 2 4 3 2 2 2 4 5 6 6 5 6 8 12 13 13 12 12 12 12 12 11 12 12 12 12 13 14 13 13 14 14 14 15 15 16 16 16
4 4 3 7 9 5 4 4 4 3 3 3 5 3 3 1 3 4 6 5 5 5 5 7 11 12 12 12 12 12 12 12 11 12 12 12 12 13 13 13 13 13 13 14 14 14 15 15 16
5 4 5 6 6 6 4 4 5 5 4 5 5 5 2 1 3 5 6 6 5 5 6 5 7 9 11 12 12 11 12 11 11 11 11 12 12 12 13 12 12 13 13 14 14 14 14 15 16
5 4 3 5 5 6 3 3 2 5 4 1 5 5 4 3 5 6 6 6 5 5 5 5 7 8 9 10 11 11 11 11 11 11 11 12 12 12 12 12 12 12 13 13 13 14 14 15 15
4 3 7 7 7 5 2 2 0 1 3 2 1 1 0 7 8 8 5 4 4 4 3 4 5 7 8 9 10 10 10 11 11 11 12 12 12 12 11 12 12 12 12 12 13 14 14 14 15
4 6 11 5 4 3 2 3 3 2 1 1 1 2 4 8 9 10 8 9 8 6 4 4 5 6 7 8 8 8 9 9 10 11 11 11 11 11 11 12 12 12 12 12 12 13 13 13 13
5 8 5 3 2 2 2 2 2 4 4 5 5 4 7 8 8 9 9 8 8 6 5 4 5 6 6 6 7 7 8 9 10 11 11 11 11 10 11 10 11 11 12 11 11 12 12 12 11
4 5 4 3 1 1 2 2 2 3 5 2 4 7 8 9 10 10 9 7 5 5 5 4 5 5 6 6 6 6 6 7 7 9 10 10 8 8 9 9 9 10 10 10 10 10 11 12 12
6 5 3 2 1 1 1 2 3 5 4 1 4 7 8 9 8 6 5 4 5 5 5 5 5 6 6 6 5 6 6 6 7 8 8 9 8 6 7 7 8 9 9 9 8 9 9 10 11
4 3 4 3 3 1 2 4 3 6 1 2 4 5 6 8 7 5 4 5 5 6 6 5 5 6 7 6 5 5 6 6 7 7 8 9 9 7 6 6 7 8 8 8 9 8 8 8 9
1 2 4 3 2 2 1 5 7 5 2 2 3 4 4 5 5 6 6 6 6 6 5 6 6 5 7 7 6 6 6 7 6 6 8 8 8 8 7 6 6 6 7 8 9 9 8 7 7
1 1 4 4 2 2 3 9 7 2 4 3 2 2 3 4 4 4 4 4 4 5 5 6 6 6 6 6 7 6 6 6 5 7 7 8 8 9 7 5 5 6 7 8 6 5 4 4 4
0 4 6 4 1 1 4 8 5 2 3 3 3 2 3 2 2 3 3 4 4 5 6 5 6 6 6 6 6 6 6 5 5 6 6 7 8 9 8 6 5 6 7 6 5 4 3 4 4
5 5 4 5 2 1 4 8 7 3 2 3 2 2 2 3 4 3 2 3 3 4 4 5 5 5 6 5 5 4 4 4 4 5 5 6 7 8 8 6 6 6 5 4 4 4 4 3 3
4 5 7 6 2 2 6 9 9 4 1 2 2 2 3 3 3 1 1 1 2 3 4 5 5 5 5 5 5 4 4 3 2 3 5 6 6 7 7 5 5 5 4 4 4 4 4 3 2
5 7 7 5 1 3 5 9 7 3 2 3 3 3 3 2 2 2 0 1 2 3 4 5 6 6 6 5 5 3 4 3 2 3 4 5 6 7 6 6 4 4 4 4 4 4 2 2 1
6 7 7 6 4 1 2 6 5 3 1 1 1 2 2 2 2 2 1 2 3 3 5 5 6 6 6 5 4 4 3 2 2 2 2 3 6 6 6 6 6 5 4 5 4 4 4 3 1
8 6 6 6 4 4 3 5 6 3 2 2 3 3 3 3 3 2 2 2 3 4 4 4 5 5 5 6 7 8 6 4 4 4 3 3 4 5 6 6 6 6 4 5 5 4 3 4 3
5 3 4 5 5 4 3 4 6 2 3 5 4 4 4 3 3 3 3 3 3 2 3 3 4 5 5 6 7 8 6 4 3 4 4 4 3 4 5 5 5 5 4 4 4 4 4 3 3
2 1 1 0 1 6 7 6 4 2 4 6 5 5 5 4 4 4 3 2 1 0 1 2 3 4 5 6 7 7 7 6 6 6 5 4 3 3 4 4 4 5 4 5 5 5 5 4 4
1 2 1 2 2 6 3 4 4 3 2 3 5 6 4 4 4 4 4 3 2 1 1 2 3 4 5 6 6 7 7 7 8 7 7 6 5 4 5 4 4 4 4 5 5 4 5 5 5
2 3 3 4 5 4 1 5 3 1 2 4 4 4 5 5 5 5 5 4 3 2 1 2 3 3 4 6 6 5 6 5 5 6 6 6 6 6 5 6 5 4 5 5 5 4 4 4 5
2 3 2 2 2 4 4 3 3 3 6 6 7 7 8 7 7 7 6 5 4 3 2 2 3 3 3 4 4 4 5 5 5 5 4 4 4 4 5 5 5 5 5 5 5 4 5 4 5
1 3 2 2 3 5 4 3 3 5 7 7 8 8 8 8 7 7 6 6 5 4 3 2 2 2 2 2 3 3 4 5 4 4 4 4 4 4 5 5 5 5 5 5 5 5 5 5 5
1 1 1 1 2 3 3 4 1 2 5 6 7 7 7 8 8 8 6 6 6 5 4 3 2 2 1 1 2 2 2 3 3 4 4 4 4 5 5 6 5 5 5 5 5 5 6 6 5
2 2 3 3 4 3 2 4 3 4 5 5 7 7 8 8 7 7 7 7 7 7 6 5 4 3 2 1 1 2 2 2 3 4 4 4 4 4 5 5 5 5 5 5 6 6 5 6 6
Wind_Direction
16 61 71 60 61 56 234 236 212 210 210 190 143 147 161 167 170 199 10 143 130 145 169 162 147 134 127 121 115 110 106 102 99 96 93 89 88 86 84 84 84 85 84 83 82 80 80 78 77
64 73 60 67 112 210 254 228 213 211 184 128 90 104 130 205 239 148 157 186 145 145 153 152 143 135 130 124 118 113 110 105 101 99 96 93 89 86 85 85 84 83 85 84 82 80 79 78 78
100 59 90 96 160 200 228 221 212 195 147 141 117 82 165 205 188 189 220 161 135 134 140 146 138 136 132 126 121 116 112 108 103 101 99 95 92 88 85 84 84 83 85 85 83 82 80 79 79
89 56 64 113 223 223 218 219 177 149 122 134 145 151 260 321 203 182 136 137 131 124 131 143 137 137 134 129 124 119 115 110 106 105 102 97 94 91 88 84 83 83 84 84 84 83 81 80 79
65 87 97 238 243 243 239 231 170 174 187 170 154 173 234 345 71 110 128 134 134 122 122 141 137 135 135 131 126 121 117 113 110 107 104 100 96 93 88 84 83 84 84 83 82 82 82 80 79
73 85 148 232 245 253 243 203 169 191 191 162 162 172 224 25 112 129 128 124 119 118 111 128 140 136 131 127 123 120 118 115 111 106 103 100 96 94 90 86 84 85 85 83 82 82 81 81 80
126 133 199 225 251 260 233 172 175 184 203 207 173 166 240 221 153 130 122 114 107 109 105 108 124 133 133 127 122 120 117 113 111 107 104 99 95 93 91 87 85 85 86 84 82 81 80 80 79
136 133 204 223 228 252 212 167 189 176 205 155 148 169 225 205 139 119 109 108 112 105 103 102 109 114 118 123 122 119 115 113 111 108 102 97 92 89 87 85 84 83 84 84 83 81 80 78 77
111 130 224 219 207 234 178 163 303 103 123 121 169 215 254 121 128 127 121 122 136 132 119 107 107 107 110 115 120 117 115 113 110 106 100 91 86 83 82 83 82 82 83 84 83 82 78 77 74
139 203 229 218 201 207 187 183 186 134 140 227 284 32 98 126 143 154 164 169 170 170 159 131 115 107 108 112 113 106 104 105 101 100 97 90 86 83 82 82 79 79 78 80 82 81 74 72 69
179 214 237 244 230 199 200 217 169 156 219 218 209 177 142 147 160 171 176 176 175 167 156 143 127 114 112 107 102 98 98 97 97 98 97 94 86 83 79 76 72 72 71 71 73 71 69 70 69
202 238 232 252 215 195 212 198 178 189 226 223 188 146 150 163 176 183 185 183 166 155 156 140 129 121 114 109 104 103 100 99 98 100 103 99 88 80 78 75 73 73 74 73 72 72 70 70 68
225 247 244 245 221 231 209 219 223 250 258 56 108 133 161 174 183 185 178 164 158 164 163 157 137 138 127 117 113 112 108 107 110 109 107 108 99 86 85 81 77 76 78 79 76 75 72 70 66
231 244 258 264 250 252 226 262 242 263 183 122 142 168 179 184 185 177 172 175 179 180 175 164 154 143 134 127 121 119 117 117 116 113 114 115 112 105 95 86 80 78 81 85 85 81 80 74 71
211 275 293 257 212 203 144 288 245 249 158 175 194 191 187 194 188 193 192 189 189 185 176 170 161 143 144 139 131 124 124 124 120 121 123 121 119 113 105 93 84 85 89 90 86 81 80 75 70
55 229 261 262 204 199 167 254 263 221 180 217 222 202 196 200 201 206 196 184 179 173 173 175 164 154 152 144 134 128 129 125 123 128 129 128 126 123 113 99 89 96 95 91 86 82 80 70 64
272 243 248 273 215 147 188 250 278 217 195 230 238 228 214 217 231 229 209 184 177 176 172 171 168 165 160 147 133 127 126 124 128 132 132 135 131 131 122 110 107 107 95 88 91 80 91 84 69
236 240 254 249 256 153 226 255 279 284 211 237 249 241 227 233 244 240 216 187 174 172 168 168 168 164 155 144 127 118 115 117 121 129 138 141 137 134 128 120 119 115 99 89 91 98 84 92 82
235 242 259 262 230 214 239 261 273 281 263 272 280 267 249 253 270 279 189 168 165 165 167 173 170 169 162 168 166 163 167 162 143 129 144 147 144 141 132 125 122 121 118 120 117 115 100 83 83
245 253 260 283 294 234 258 269 271 249 220 233 252 272 266 294 334 335 261 173 188 195 192 183 183 179 181 184 175 167 153 161 152 131 139 152 149 148 144 134 135 131 126 125 127 124 123 112 80
247 238 246 262 310 263 278 286 265 258 228 337 340 331 313 272 278 292 268 218 204 209 207 203 194 188 185 172 151 132 117 111 141 167 170 160 158 154 149 148 144 139 139 155 159 155 145 152 138
255 242 241 247 247 253 194 268 267 252 285 306 328 339 329 324 315 302 292 260 228 227 215 208 195 189 183 170 170 168 175 181 191 186 181 162 161 156 153 158 153 149 149 160 173 164 165 159 166
245 261 247 243 223 246 229 228 272 333 301 306 315 317 313 316 317 307 291 264 245 225 208 208 194 191 186 182 182 181 187 185 168 164 171 174 171 165 163 169 160 161 163 169 175 175 173 173 175
264 332 299 173 173 243 223 210 267 276 287 315 321 320 320 322 321 320 320 323 302 249 196 193 191 198 194 190 189 189 187 179 171 173 182 185 184 182 177 177 175 177 175 182 187 186 183 186 180
39 79 348 318 257 248 208 212 245 279 330 330 322 322 325 331 339 343 345 336 314 294 229 205 195 207 201 194 197 197 193 188 189 187 190 187 188 196 193 186 187 191 190 187 183 186 192 189 188
226 186 199 234 241 275 255 229 234 291 355 356 348 350 1 360 357 354 349 341 321 302 271 224 216 220 208 201 203 197 193 195 198 195 192 194 197 199 192 187 186 189 187 186 182 189 198 194 196
176 211 216 192 262 267 257 278 290 359 3 6 8 12 6 1 2 360 356 352 344 334 308 252 228 228 214 208 201 194 192 195 200 196 195 195 196 191 185 188 188 191 188 186 183 191 196 194 199
180 156 112 178 237 260 278 268 282 328 339 349 359 2 356 355 356 355 353 352 350 346 343 340 287 242 228 204 200 205 196 198 197 189 192 196 196 190 186 191 193 195 194 192 191 191 197 196 203
102 129 157 189 208 214 268 274 324 328 349 352 356 359 355 354 352 350 351 352 353 358 357 357 354 343 298 226 205 205 203 195 192 195 202 202 199 193 191 194 195 197 195 194 193 191 190 196 201
144 178 168 199 248 214 223 264 20 21 11 5 356 355 355 354 353 354 357 1 2 359 355 356 353 349 334 304 222 206 195 181 193 206 209 205 203 202 200 196 196 201 200 197 195 197 198 199 204
Height
1493 1494 1496 1498 1503 1513 1512 1505 1501 1500 1499 1498 1498 1499 1500 1503 1506 1509 1504 1503 1505 1508 1510 1512 1515 1517 1518 1520 1521 1522 1523 1524 1525 1526 1527 1528 1528 1529 1529 1529 1530 1531 1531 1532 1532 1533 1533 1534 1534
1493 1494 1497 1498 1508 1516 1509 1501 1499 1496 1495 1496 1497 1498 1499 1500 1500 1501 1500 1502 1505 1507 1509 1512 1514 1516 1518 1519 1521 1522 1523 1524 1525 1526 1527 1528 1529 1529 1529 1530 1531 1531 1532 1533 1533 1534 1534 1535 1535
1492 1494 1497 1500 1508 1508 1501 1495 1494 1494 1494 1495 1496 1497 1498 1498 1499 1499 1500 1502 1505 1507 1509 1511 1514 1516 1517 1519 1521 1522 1523 1524 1525 1526 1527 1528 1529 1529 1530 1530 1531 1532 1533 1533 1534 1534 1535 1536 1536
1492 1495 1497 1503 1502 1498 1494 1491 1491 1493 1494 1494 1495 1497 1497 1498 1498 1499 1500 1502 1504 1507 1509 1511 1513 1515 1517 1519 1520 1522 1523 1524 1525 1526 1527 1528 1529 1530 1530 1531 1532 1532 1533 1534 1535 1535 1536 1537 1537
1492 1493 1500 1504 1498 1493 1491 1490 1490 1491 1493 1493 1495 1495 1496 1497 1497 1498 1500 1502 1504 1506 1509 1511 1513 1515 1516 1518 1520 1521 1523 1524 1525 1527 1527 1528 1529 1530 1530 1531 1532 1533 1533 1534 1535 1536 1536 1537 1538
1491 1493 1503 1502 1494 1491 1488 1488 1489 1490 1491 1492 1494 1495 1494 1495 1496 1497 1500 1502 1504 1506 1508 1510 1512 1514 1516 1517 1519 1521 1522 1524 1525 1526 1527 1528 1529 1529 1530 1531 1532 1533 1534 1535 1535 1536 1537 1538 1538
1490 1495 1498 1495 1493 1489 1486 1486 1488 1489 1490 1491 1491 1493 1492 1494 1495 1497 1499 1502 1504 1506 1508 1510 1512 1514 1516 1517 1519 1520 1522 1523 1524 1526 1527 1528 1529 1529 1530 1531 1532 1533 1534 1535 1536 1536 1537 1538 1539
1487 1493 1494 1494 1491 1487 1484 1484 1485 1486 1488 1489 1491 1491 1491 1492 1494 1496 1499 1501 1503 1505 1507 1509 1511 1513 1515 1516 1518 1520 1521 1522 1524 1525 1526 1527 1528 1529 1530 1531 1532 1533 1534 1535 1536 1536 1537 1538 1539
1486 1494 1492 1488 1487 1484 1482 1483 1484 1485 1486 1487 1488 1489 1490 1491 1492 1495 1497 1500 1502 1504 1506 1508 1510 1512 1513 1515 1517 1519 1520 1521 1523 1524 1525 1526 1527 1528 1529 1530 1531 1532 1533 1534 1535 1536 1537 1538 1539
1484 1489 1482 1481 1481 1481 1481 1482 1483 1484 1485 1486 1486 1487 1488 1489 1490 1492 1494 1496 1499 1501 1504 1506 1508 1510 1512 1514 1516 1518 1519 1520 1522 1523 1524 1525 1526 1527 1528 1529 1531 1532 1533 1534 1535 1536 1537 1538 1539
1481 1481 1478 1479 1479 1479 1480 1482 1482 1483 1485 1484 1483 1484 1486 1487 1488 1490 1492 1494 1496 1499 1502 1504 1506 1509 1511 1513 1514 1516 1518 1519 1520 1521 1523 1524 1525 1526 1527 1529 1530 1531 1532 1533 1534 1535 1536 1537 1538
1479 1477 1477 1477 1478 1479 1480 1480 1482 1481 1481 1482 1482 1483 1483 1485 1486 1487 1490 1492 1495 1497 1499 1502 1504 1507 1509 1511 1513 1514 1516 1517 1518 1520 1521 1522 1524 1525 1526 1527 1529 1530 1531 1532 1533 1534 1535 1536 1538
1477 1476 1476 1476 1477 1478 1479 1480 1480 1479 1480 1480 1480 1480 1481 1482 1484 1486 1488 1491 1493 1495 1497 1499 1502 1504 1507 1509 1511 1512 1514 1516 1517 1518 1520 1521 1522 1523 1525 1526 1527 1529 1530 1531 1532 1533 1534 1536 1537
1474 1475 1475 1475 1475 1477 1478 1478 1479 1476 1478 1478 1478 1478 1479 1481 1482 1484 1486 1488 1490 1492 1495 1497 1500 1502 1505 1507 1509 1510 1512 1514 1515 1516 1518 1519 1521 1522 1524 1525 1526 1527 1529 1530 1531 1532 1533 1535 1536
1474 1475 1474 1473 1474 1476 1477 1478 1475 1475 1476 1475 1476 1476 1477 1479 1480 1481 1483 1485 1488 1490 1492 1495 1497 1500 1502 1504 1506 1508 1510 1512 1513 1515 1516 1518 1519 1521 1522 1524 1525 1526 1527 1529 1530 1531 1532 1534 1535
1474 1476 1476 1472 1473 1474 1479 1476 1471 1473 1473 1473 1473 1474 1475 1477 1478 1480 1481 1483 1486 1488 1490 1492 1494 1497 1499 1501 1503 1506 1508 1509 1511 1513 1514 1516 1518 1519 1521 1522 1523 1524 1526 1527 1528 1529 1531 1532 1533
1477 1478 1475 1474 1473 1474 1476 1474 1471 1471 1471 1471 1471 1472 1473 1474 1475 1477 1478 1480 1482 1485 1487 1489 1491 1493 1496 1498 1500 1503 1505 1507 1509 1510 1512 1514 1515 1517 1519 1520 1521 1523 1524 1525 1527 1528 1529 1530 1531
1476 1477 1475 1474 1473 1475 1476 1474 1470 1469 1469 1469 1470 1470 1471 1471 1472 1474 1475 1477 1479 1482 1484 1486 1488 1490 1493 1495 1497 1499 1502 1504 1506 1508 1510 1511 1513 1515 1516 1518 1520 1521 1522 1523 1525 1526 1527 1528 1529
1474 1475 1475 1473 1473 1475 1474 1473 1469 1469 1469 1469 1469 1469 1469 1469 1470 1472 1472 1474 1476 1478 1479 1481 1484 1486 1489 1491 1493 1495 1497 1500 1502 1505 1507 1508 1510 1512 1514 1515 1517 1519 1519 1521 1522 1524 1525 1526 1527
1473 1473 1473 1473 1473 1474 1475 1472 1468 1467 1468 1468 1467 1467 1467 1467 1468 1468 1469 1470 1472 1473 1476 1478 1480 1482 1485 1487 1490 1492 1494 1497 1499 1501 1503 1505 1507 1509 1511 1512 1514 1516 1517 1518 1520 1521 1522 1523 1525
1471 1472 1471 1473 1474 1473 1474 1471 1467 1465 1465 1466 1466 1466 1466 1466 1465 1466 1466 1467 1469 1470 1472 1474 1476 1479 1481 1484 1486 1489 1491 1493 1496 1498 1500 1501 1503 1505 1507 1509 1511 1512 1514 1515 1517 1518 1519 1520 1522
1469 1468 1469 1470 1474 1475 1474 1474 1466 1465 1465 1465 1465 1465 1464 1464 1464 1463 1464 1464 1465 1467 1469 1471 1473 1475 1477 1480 1482 1484 1485 1488 1490 1493 1496 1498 1500 1501 1504 1506 1507 1509 1511 1512 1514 1515 1517 1518 1519
1467 1466 1467 1468 1471 1474 1474 1475 1467 1466 1466 1465 1465 1464 1463 1462 1462 1462 1462 1462 1464 1465 1466 1468 1470 1472 1474 1476 1478 1480 1482 1485 1487 1490 1492 1494 1496 1498 1500 1502 1503 1505 1507 1509 1511 1512 1513 1515 1516
1467 1467 1468 1470 1472 1471 1468 1471 1466 1470 1468 1466 1465 1464 1462 1461 1461 1460 1460 1461 1461 1462 1463 1465 1466 1468 1470 1472 1474 1476 1478 1480 1483 1485 1487 1489 1491 1494 1496 1498 1500 1501 1503 1505 1507 1508 1510 1511 1513
1468 1471 1473 1472 1473 1467 1466 1468 1470 1469 1468 1468 1466 1463 1461 1460 1460 1459 1459 1458 1459 1460 1461 1462 1463 1464 1466 1468 1470 1472 1474 1476 1478 1480 1483 1484 1486 1488 1490 1493 1495 1497 1499 1500 1502 1504 1505 1507 1508
1469 1470 1473 1473 1472 1469 1470 1469 1470 1469 1468 1466 1465 1463 1461 1460 1459 1458 1458 1457 1457 1458 1458 1459 1460 1461 1462 1464 1465 1467 1470 1472 1473 1475 1477 1479 1481 1483 1486 1488 1490 1492 1494 1496 1497 1499 1501 1502 1504
1469 1470 1471 1475 1475 1474 1471 1472 1470 1468 1467 1466 1464 1463 1462 1461 1460 1458 1457 1456 1456 1456 1456 1457 1457 1458 1459 1460 1461 1463 1465 1467 1469 1471 1473 1474 1476 1478 1481 1482 1485 1487 1489 1490 1492 1493 1495 1497 1499
1469 1471 1476 1475 1473 1469 1468 1472 1472 1470 1469 1468 1467 1465 1463 1461 1460 1458 1456 1455 1455 1455 1455 1455 1455 1456 1456 1457 1458 1459 1461 1463 1465 1466 1468 1470 1471 1473 1475 1477 1479 1481 1483 1485 1486 1488 1490 1492 1493
1472 1474 1475 1477 1474 1473 1474 1473 1473 1473 1472 1471 1470 1468 1466 1463 1461 1458 1456 1455 1455 1454 1453 1453 1453 1453 1453 1454 1455 1456 1457 1458 1460 1462 1463 1465 1467 1468 1470 1472 1474 1476 1477 1479 1480 1482 1484 1486 1488
1473 1474 1476 1477 1477 1478 1476 1479 1475 1474 1474 1473 1471 1469 1467 1464 1462 1459 1457 1455 1454 1453 1452 1452 1451 1451 1451 1451 1452 1453 1453 1454 1456 1457 1459 1460 1462 1464 1465 1467 1468 1470 1471 1473 1475 1476 1478 1480 1482